DW3400 Frejlev DK current weather conditions

sailwx.info

Wind from 270

Air temperature 15.0° C
Dewpoint 11.4° C

Last reported at 2018-Jun-18 01:00 UTC.
Time now 2018-Jun-18 01:54 UTC

Location: N 54°42' E 011°46'.
View on Google Maps.

See reports from other nearby stations

  
Tides and Currents Weather Stations Pressure Air Temp Water Temp Dewpoint Dewpoint Depression Visibility Wind Speed Wind Dir Waves Ship Positions
date/time (UTC)wind fromknots sea level pressurealtimeterstation pressurevisibilityair tempwater tempwave heightnotes
2018-Jun-18 01:00 270 15.0
2018-Jun-18 00:55 250 0 gusting 4 15.0
2018-Jun-18 00:40 225 0 gusting 2 14.4
2018-Jun-18 00:35 356 14.4
2018-Jun-18 00:30 045 14.4
2018-Jun-18 00:20 228 14.4
2018-Jun-18 00:05 225 14.4
2018-Jun-18 00:00 225 14.4
2018-Jun-17 23:50 225 15.0
2018-Jun-17 23:45 225 15.0
2018-Jun-17 23:40 225 15.0
2018-Jun-17 23:35 225 15.0
2018-Jun-17 23:30 225 15.6
2018-Jun-17 23:25 225 15.6
2018-Jun-17 23:20 270 15.6
2018-Jun-17 23:15 270 15.6
2018-Jun-17 23:10 270 15.6
2018-Jun-17 22:50 267 16.7
2018-Jun-17 22:40 180 16.7
2018-Jun-17 22:35 228 16.7
2018-Jun-17 22:30 246 16.7
2018-Jun-17 22:25 272 16.7
2018-Jun-17 22:20 267 16.7
2018-Jun-17 22:15 267 16.7
2018-Jun-17 22:10 267 16.7
2018-Jun-17 21:55 270 17.2
2018-Jun-17 21:50 270 17.2
2018-Jun-17 21:45 267 17.2
2018-Jun-17 21:35 184 17.2
2018-Jun-17 21:30 270 17.2
2018-Jun-17 21:20 222 17.2
2018-Jun-17 21:10 225 17.2
2018-Jun-17 21:00 267 0 gusting 1 17.8
2018-Jun-17 20:55 225 17.8
2018-Jun-17 20:50 228 17.8
2018-Jun-17 20:45 267 17.8
2018-Jun-17 20:40 266 17.8
2018-Jun-17 20:35 225 17.8
2018-Jun-17 20:30 180 18.3
2018-Jun-17 20:20 270 18.3
2018-Jun-17 20:15 271 18.3
2018-Jun-17 20:10 310 18.3
2018-Jun-17 20:00 228 18.3
2018-Jun-17 19:55 315 0 gusting 5 18.3
2018-Jun-17 19:45 230 0 gusting 6 18.9
2018-Jun-17 19:40 274 0 gusting 6 19.4
2018-Jun-17 19:30 281 1 gusting 6 19.4
2018-Jun-17 19:25 198 1 gusting 5 20.0
2018-Jun-17 19:15 225 20.0
2018-Jun-17 19:10 267 0 gusting 6 20.0
2018-Jun-17 18:55 249 0 gusting 4 20.0
2018-Jun-17 18:45 285 2 gusting 6 20.0
2018-Jun-17 18:35 225 2 gusting 6 20.6
2018-Jun-17 18:25 313 0 gusting 6 20.6
2018-Jun-17 18:20 267 1 gusting 5 20.6
2018-Jun-17 18:05 225 2 gusting 7 20.6
2018-Jun-17 18:00 247 1 gusting 7 20.6
2018-Jun-17 17:55 268 4 gusting 7 21.1
2018-Jun-17 17:50 313 2 gusting 6 21.1
2018-Jun-17 17:45 307 0 gusting 6 21.7
2018-Jun-17 17:40 280 1 gusting 8 21.7
2018-Jun-17 17:35 045 21.7
2018-Jun-17 17:30 238 1 gusting 6 21.7
2018-Jun-17 17:25 266 0 gusting 6 21.7
2018-Jun-17 17:20 206 1 gusting 5 21.7
2018-Jun-17 17:15 225 1 gusting 7 21.7
2018-Jun-17 17:10 266 1 gusting 6 21.7
2018-Jun-17 17:05 248 21.7
2018-Jun-17 17:00 308 2 gusting 8 21.7
2018-Jun-17 16:55 314 1 gusting 6 21.7
2018-Jun-17 16:40 335 0 gusting 8 21.7
2018-Jun-17 16:35 262 1 gusting 5 21.1
2018-Jun-17 16:30 311 1 gusting 6 21.1
2018-Jun-17 16:25 183 3 gusting 6 20.6
2018-Jun-17 16:15 270 2 gusting 7 20.6
2018-Jun-17 16:10 267 2 gusting 6 20.6
2018-Jun-17 16:00 314 0 gusting 6 20.6
2018-Jun-17 15:55 312 0 gusting 6 20.6
2018-Jun-17 15:50 221 1 gusting 7 20.6
2018-Jun-17 15:40 143 0 gusting 6 20.6
2018-Jun-17 15:35 354 2 gusting 10 21.1
2018-Jun-17 15:30 043 2 gusting 7 21.1
2018-Jun-17 15:25 311 2 gusting 8 21.1
2018-Jun-17 15:20 090 3 gusting 11 21.7
2018-Jun-17 15:15 184 3 gusting 8 21.7
2018-Jun-17 15:10 045 0 gusting 6 21.7
2018-Jun-17 15:05 270 1 gusting 6 22.2
2018-Jun-17 15:00 084 0 gusting 7 22.2
2018-Jun-17 14:50 019 0 gusting 5 22.8
2018-Jun-17 14:35 265 2 gusting 7 23.9
2018-Jun-17 14:30 040 1 gusting 8 23.9
2018-Jun-17 14:25 244 2 gusting 11 24.4
2018-Jun-17 14:20 184 3 gusting 8 24.4
2018-Jun-17 14:15 228 4 gusting 12 24.4
2018-Jun-17 14:05 225 5 gusting 10 24.4
2018-Jun-17 13:55 270 1 gusting 10 24.4
2018-Jun-17 13:40 247 4 gusting 7 23.9
2018-Jun-17 13:35 143 0 gusting 7 23.3
2018-Jun-17 13:30 267 4 gusting 8 23.3
2018-Jun-17 13:25 23.3
2018-Jun-17 13:20 253 1 gusting 8 23.3
2018-Jun-17 13:10 315 1 gusting 13 23.3
2018-Jun-17 13:05 135 2 gusting 13 23.9
2018-Jun-17 12:55 337 6 gusting 13 24.4
2018-Jun-17 12:50 226 4 gusting 13 24.4
2018-Jun-17 12:45 225 5 gusting 11 23.9
2018-Jun-17 12:40 221 3 gusting 13 23.9
2018-Jun-17 12:35 270 2 gusting 13 24.4
2018-Jun-17 12:30 260 1 gusting 12 24.4
2018-Jun-17 12:20 200 6 gusting 13 24.4
2018-Jun-17 12:05 225 2 gusting 7 23.9
2018-Jun-17 11:55 225 2 gusting 13 23.9
2018-Jun-17 11:45 272 2 gusting 11 23.3
2018-Jun-17 11:35 177 3 gusting 11 23.3
2018-Jun-17 11:30 225 5 gusting 13 23.3
2018-Jun-17 11:25 186 4 gusting 13 23.3
2018-Jun-17 11:20 241 4 gusting 15 23.3
2018-Jun-17 11:15 177 4 gusting 13 23.3
2018-Jun-17 11:10 311 3 gusting 10 23.3
2018-Jun-17 11:05 315 5 gusting 10 23.3
2018-Jun-17 10:50 315 3 gusting 8 23.3
2018-Jun-17 10:40 225 5 gusting 12 22.8
2018-Jun-17 10:35 268 4 gusting 12 22.8
2018-Jun-17 10:25 180 4 gusting 15 22.2
2018-Jun-17 10:15 226 2 gusting 13 21.7
2018-Jun-17 10:10 227 5 gusting 10 22.2
2018-Jun-17 10:05 225 0 gusting 7 22.2
2018-Jun-17 09:55 312 5 gusting 13 21.7
2018-Jun-17 09:50 228 6 gusting 13 21.7
2018-Jun-17 09:45 308 3 gusting 13 22.2
2018-Jun-17 09:40 179 2 gusting 13 21.7
2018-Jun-17 09:20 186 3 gusting 8 21.7
2018-Jun-17 09:15 083 4 gusting 8 21.7
2018-Jun-17 09:10 291 5 gusting 11 21.1
2018-Jun-17 09:05 022 0 gusting 6 21.1
2018-Jun-17 09:00 163 2 gusting 11 21.1
2018-Jun-17 08:55 181 3 gusting 10 21.1
2018-Jun-17 08:50 314 2 gusting 11 21.1
2018-Jun-17 08:45 294 4 gusting 11 21.1
2018-Jun-17 08:40 184 5 gusting 10 21.1
2018-Jun-17 08:35 225 2 gusting 7 20.6
2018-Jun-17 08:30 182 0 gusting 8 20.6
2018-Jun-17 08:25 225 2 gusting 8 20.6
2018-Jun-17 08:20 356 0 gusting 8 20.6
2018-Jun-17 08:10 185 1 gusting 7 20.6
2018-Jun-17 08:00 220 0 gusting 8 20.6
2018-Jun-17 07:55 225 4 gusting 10 20.6
2018-Jun-17 07:50 229 20.0
2018-Jun-17 07:45 135 20.0
2018-Jun-17 07:40 244 20.0
2018-Jun-17 07:35 177 20.0
2018-Jun-17 07:25 228 20.0
2018-Jun-17 07:20 249 19.4
2018-Jun-17 07:15 266 19.4
2018-Jun-17 07:10 181 18.9
2018-Jun-17 07:05 225 18.3
2018-Jun-17 07:00 229 18.3
2018-Jun-17 06:55 270 18.3
2018-Jun-17 06:50 225 18.3
2018-Jun-17 06:45 180 18.3
2018-Jun-17 06:40 183 18.3
2018-Jun-17 06:35 273 18.3
2018-Jun-17 06:30 267 18.3
2018-Jun-17 06:25 223 18.3
2018-Jun-17 06:15 225 17.8
2018-Jun-17 06:00 248 17.8
2018-Jun-17 05:55 045 17.8
2018-Jun-17 05:50 244 17.8
2018-Jun-17 05:45 248 17.8
2018-Jun-17 05:40 180 17.8
2018-Jun-17 05:35 180 17.2
2018-Jun-17 05:25 180 17.2
2018-Jun-17 05:10 180 0 gusting 2 17.2
2018-Jun-17 05:05 180 16.7
2018-Jun-17 05:00 222 16.7
2018-Jun-17 04:55 180 16.7
2018-Jun-17 04:50 180 16.7
2018-Jun-17 04:40 225 16.7
2018-Jun-17 04:30 225 16.7
2018-Jun-17 04:25 090 16.7
2018-Jun-17 04:20 090 16.7
2018-Jun-17 04:15 090 16.7
2018-Jun-17 04:10 045 16.7
2018-Jun-17 04:00 045 16.7
2018-Jun-17 03:55 225 16.7
2018-Jun-17 03:50 138 16.7
2018-Jun-17 03:40 225 16.7
2018-Jun-17 03:35 225 16.7
2018-Jun-17 03:25 229 16.7
2018-Jun-17 03:20 248 16.7
2018-Jun-17 03:05 16.7
2018-Jun-17 03:00 312 16.7
2018-Jun-17 02:55 252 16.7
2018-Jun-17 02:50 266 16.7
2018-Jun-17 02:25 338 16.1
2018-Jun-17 02:20 248 15.6
2018-Jun-17 02:05 248 15.6
2018-Jun-17 02:00 248 15.6
2018-Jun-17 01:55 225 15.6
2018-Jun-17 01:50 225 15.6
2018-Jun-17 01:45 225 15.6
2018-Jun-17 01:35 225 15.6
2018-Jun-17 01:30 225 15.6
2018-Jun-17 01:25 090 15.6
2018-Jun-17 01:20 090 15.6
2018-Jun-17 01:15 090 15.6
2018-Jun-17 01:10 090 15.6
2018-Jun-17 01:05 090 15.6
2018-Jun-17 01:00 090 15.6
2018-Jun-17 00:40 090 15.6
2018-Jun-17 00:35 090 15.6
2018-Jun-17 00:30 090 15.6
2018-Jun-17 00:20 090 15.6
2018-Jun-17 00:10 090 15.6
2018-Jun-16 23:50 090 16.1
2018-Jun-16 23:45 090 16.1
2018-Jun-16 23:30 090 16.1
2018-Jun-16 23:25 090 16.1
2018-Jun-16 23:10 090 16.1
2018-Jun-16 22:50 090 16.1
2018-Jun-16 22:40 090 16.1
2018-Jun-16 22:25 090 16.7
2018-Jun-16 22:10 090 16.7
2018-Jun-16 22:05 090 16.7
2018-Jun-16 22:00 090 16.7
2018-Jun-16 21:55 090 16.7
2018-Jun-16 21:50 090 16.7
2018-Jun-16 21:45 090 16.7
2018-Jun-16 21:40 090 17.2
2018-Jun-16 21:35 090 17.2
2018-Jun-16 21:30 090 17.2
2018-Jun-16 21:25 090 17.2
2018-Jun-16 21:20 090 17.8
2018-Jun-16 21:15 090 17.8
2018-Jun-16 21:05 090 17.8
2018-Jun-16 21:00 090 17.8
2018-Jun-16 20:45 112 18.3
2018-Jun-16 20:40 135 18.3
2018-Jun-16 20:35 133 18.3
2018-Jun-16 20:30 135 18.3
2018-Jun-16 20:25 045 18.3
2018-Jun-16 20:15 135 18.3
2018-Jun-16 20:05 135 18.9
2018-Jun-16 20:00 137 18.9
2018-Jun-16 19:55 180 18.9
2018-Jun-16 19:50 175 0 gusting 2 18.9
2018-Jun-16 19:40 135 0 gusting 5 19.4
2018-Jun-16 19:35 140 1 gusting 6 19.4
2018-Jun-16 19:30 135 2 gusting 6 19.4
2018-Jun-16 19:25 180 19.4
2018-Jun-16 19:15 135 20.0
2018-Jun-16 19:10 180 20.0
2018-Jun-16 19:05 158 20.0
2018-Jun-16 19:00 133 20.0
2018-Jun-16 18:55 176 20.0
2018-Jun-16 18:45 093 20.0
2018-Jun-16 18:40 087 20.0
2018-Jun-16 18:30 135 20.0
2018-Jun-16 18:15 177 20.0
2018-Jun-16 18:10 135 20.0
2018-Jun-16 17:45 094 20.0
2018-Jun-16 17:40 048 20.0
2018-Jun-16 17:25 087 20.0
2018-Jun-16 17:20 086 2 gusting 10 20.0
2018-Jun-16 17:10 067 2 gusting 6 19.4
2018-Jun-16 17:05 045 2 gusting 5 19.4
2018-Jun-16 16:55 047 4 gusting 8 19.4
2018-Jun-16 16:50 045 1 gusting 6 19.4
2018-Jun-16 16:45 046 0 gusting 6 19.4
2018-Jun-16 16:40 067 0 gusting 5 19.4
2018-Jun-16 16:35 045 19.4
2018-Jun-16 16:30 087 0 gusting 6 19.4
2018-Jun-16 16:25 042 19.4
2018-Jun-16 16:20 045 1 gusting 5 20.0
2018-Jun-16 16:15 021 20.0
2018-Jun-16 16:10 315 20.0
2018-Jun-16 16:05 315 0 gusting 2 20.6
2018-Jun-16 16:00 067 0 gusting 1 20.6
2018-Jun-16 15:50 274 21.1
2018-Jun-16 15:40 249 4 gusting 11 22.8
2018-Jun-16 15:35 025 0 gusting 2 23.3
2018-Jun-16 15:30 246 0 gusting 4 23.3
2018-Jun-16 15:25 176 0 gusting 2 23.3
2018-Jun-16 15:20 126 0 gusting 6 23.9
2018-Jun-16 15:10 180 0 gusting 5 23.9
2018-Jun-16 15:00 176 0 gusting 11 24.4
2018-Jun-16 14:50 138 0 gusting 6 24.4
2018-Jun-16 14:45 223 0 gusting 6 24.4
2018-Jun-16 14:40 205 0 gusting 5 24.4
2018-Jun-16 14:30 090 2 gusting 13 23.9
2018-Jun-16 14:25 029 1 gusting 8 23.9
2018-Jun-16 14:20 090 2 gusting 11 24.4
2018-Jun-16 14:10 133 0 gusting 6 24.4
2018-Jun-16 13:55 022 1 gusting 7 25.0
2018-Jun-16 13:35 086 3 gusting 8 25.6
2018-Jun-16 13:20 091 1 gusting 11 26.1
2018-Jun-16 13:15 085 4 gusting 11 26.1
2018-Jun-16 13:10 135 2 gusting 10 26.7
2018-Jun-16 13:05 180 26.1
2018-Jun-16 12:55 087 1 gusting 6 26.1
2018-Jun-16 12:45 134 1 gusting 13 25.6
2018-Jun-16 12:40 090 4 gusting 13 25.6
2018-Jun-16 12:35 133 2 gusting 11 25.6
2018-Jun-16 12:30 091 2 gusting 13 25.6
2018-Jun-16 12:15 091 1 gusting 10 25.6
2018-Jun-16 12:00 134 1 gusting 6 25.6
2018-Jun-16 11:55 087 1 gusting 5 26.1
2018-Jun-16 11:50 063 0 gusting 6 26.1
2018-Jun-16 11:45 069 2 gusting 7 26.1
2018-Jun-16 11:40 008 0 gusting 5 26.1
2018-Jun-16 11:35 180 2 gusting 5 25.6
2018-Jun-16 11:25 129 0 gusting 7 25.0
2018-Jun-16 11:20 340 0 gusting 7 25.0
2018-Jun-16 11:15 133 1 gusting 6 25.0
2018-Jun-16 11:10 180 0 gusting 5 25.0
2018-Jun-16 11:05 180 1 gusting 5 25.0
2018-Jun-16 10:55 134 1 gusting 6 25.0
2018-Jun-16 10:50 180 0 gusting 5 24.4
2018-Jun-16 10:45 135 1 gusting 6 24.4
2018-Jun-16 10:40 179 1 gusting 6 24.4
2018-Jun-16 10:35 225 0 gusting 6 24.4
2018-Jun-16 10:25 224 0 gusting 5 24.4
2018-Jun-16 10:20 088 0 gusting 5 24.4
2018-Jun-16 10:15 178 0 gusting 4 24.4
2018-Jun-16 10:05 090 0 gusting 4 24.4
2018-Jun-16 10:00 049 0 gusting 2 24.4
2018-Jun-16 09:50 176 0 gusting 5 24.4
2018-Jun-16 09:45 130 24.4
2018-Jun-16 09:40 133 0 gusting 5 24.4
2018-Jun-16 09:30 198 23.9
2018-Jun-16 09:25 136 1 gusting 4 23.9
2018-Jun-16 09:20 093 0 gusting 2 23.9
2018-Jun-16 09:15 132 1 gusting 6 23.3
2018-Jun-16 09:10 045 23.3
2018-Jun-16 09:05 225 0 gusting 2 23.3
2018-Jun-16 08:40 116 0 gusting 5 22.2
2018-Jun-16 08:35 132 22.2
2018-Jun-16 08:30 180 0 gusting 6 22.2
2018-Jun-16 08:25 113 0 gusting 5 22.2
2018-Jun-16 08:20 090 0 gusting 5 22.2
2018-Jun-16 08:05 090 0 gusting 4 21.7
2018-Jun-16 08:00 133 0 gusting 2 21.1
2018-Jun-16 07:55 090 0 gusting 2 21.1
2018-Jun-16 07:50 246 0 gusting 5 21.1
2018-Jun-16 07:35 20.6
2018-Jun-16 07:30 093 20.0
2018-Jun-16 07:15 091 0 gusting 7 19.4
2018-Jun-16 07:10 048 0 gusting 6 19.4
2018-Jun-16 07:05 045 19.4
2018-Jun-16 06:55 093 19.4
2018-Jun-16 06:50 053 2 gusting 6 19.4
2018-Jun-16 06:45 048 19.4
2018-Jun-16 06:40 131 18.9
2018-Jun-16 06:35 045 1 gusting 6 18.9
2018-Jun-16 06:20 088 0 gusting 4 18.3
2018-Jun-16 06:10 047 17.8
2018-Jun-16 06:05 068 17.2
2018-Jun-16 06:00 132 16.7
2018-Jun-16 05:55 045 16.7
2018-Jun-16 05:50 045 16.1
2018-Jun-16 05:45 048 16.1
2018-Jun-16 05:40 045 16.1
2018-Jun-16 05:35 045 16.1
2018-Jun-16 05:30 045 15.6
2018-Jun-16 05:25 045 15.6
2018-Jun-16 05:20 045 15.6
2018-Jun-16 05:15 045 15.6
2018-Jun-16 05:05 045 15.0
2018-Jun-16 05:00 045 15.0
2018-Jun-16 04:50 045 15.0
2018-Jun-16 04:40 045 15.0
2018-Jun-16 04:35 045 15.0
2018-Jun-16 04:30 045 14.4
2018-Jun-16 04:25 045 14.4
2018-Jun-16 04:20 045 14.4
2018-Jun-16 04:15 045 14.4
2018-Jun-16 04:10 045 14.4
2018-Jun-16 04:00 045 14.4
2018-Jun-16 03:50 045 13.9
2018-Jun-16 03:45 045 13.3
2018-Jun-16 03:35 045 13.3
2018-Jun-16 03:30 045 13.3
2018-Jun-16 03:05 045 12.8
2018-Jun-16 02:55 045 12.8
2018-Jun-16 02:50 045 12.8
2018-Jun-16 02:45 045 12.2
2018-Jun-16 02:40 045 12.2
2018-Jun-16 02:35 045 12.2
2018-Jun-16 02:30 045 12.2
2018-Jun-16 02:15 045 12.2
2018-Jun-16 02:10 045 12.2
2018-Jun-16 02:00 045 12.2
2018-Jun-16 01:50 045 12.2
2018-Jun-16 01:45 045 12.2
2018-Jun-16 01:40 045 12.2
2018-Jun-16 01:35 045 12.2
2018-Jun-16 01:30 045 12.2
2018-Jun-16 01:20 045 12.2
2018-Jun-16 01:15 045 12.2
2018-Jun-16 01:10 045 12.2
2018-Jun-16 01:05 045 12.8
2018-Jun-16 01:00 045 12.8